Location: Follega
(52.8850°N, 5.7362°E)
Time: 03:50:12
(UTC+00:00)

Cosmos 2297 Rocket - Pass Details

Date: 07 October 2020
Orbit: 838 x 845 km, 71.0° (Epoch: 26 October)

Event Time Altitude Azimuth Distance (km) Brightness Sun altitude
Rises 17:48:04 0° 313° (NW) 3,414 6.2 -8.2°
Reaches altitude 10° 17:52:10 10° 341° (NNW) 2,479 4.9 -8.8°
Maximum altitude 17:54:37 13° 7° (N) 2,287 4.4 -9.2°
Drops below altitude 10° 17:57:04 10° 33° (NNE) 2,478 4.3 -9.6°
Enters shadow 17:59:36 - 53° (NE) 2,999 4.6 -10.0°
